Other Public Products
Issued by NWS Grand Forks, ND

Home | Current Version | Previous Version | Graphics & Text | Print | Product List | Glossary On
Versions: 1 2 3 4 5 6 7 8 9 10 11 12 13 14 15 16 17 18 19 20 21 22 23 24 25 26 27 28 29 30 31 32 33 34 35 36 37 38 39 40 41 42 43 44 45 46 47 48 49 50
000
FPUS83 KFGF 201931
OPUFGF
PRAIRIE TO PINES WEATHER ROUNDUP
NATIONAL WEATHER SERVICE EASTERN NORTH DAKOTA/GRAND FORKS ND
200 PM CDT SUN AUG 20 2017

 **SATELLITE DATA USED TO AUGMENT SKY COVER AT AUTOMATED STATIONS**
 *****  WEATHER ACROSS EASTERN NORTH DAKOTA  *****

CITY           SKY/WX    TMP DP  RH WIND       PRES   REMARKS
GRAND FORKS    FAIR      78  47  33 NW13G23   29.96F
GRAND FORKS AF FAIR      76  46  33 N9        29.98S
GRAND CITY NWS NOT AVBL
BUXTON         NOT AVBL
DEVILS LAKE    FAIR      71  43  36 N15G21    30.03S
FARGO          FAIR      74  51  44 NW13      29.97S
WAHPETON ARPT  FAIR      72  52  49 N8        30.00S
$$

 *****  WEATHER ACROSS CENTRAL AND WESTERN NORTH DAKOTA  *****

CITY           SKY/WX    TMP DP  RH WIND       PRES   REMARKS
JAMESTOWN      FAIR      71  51  49 N9        30.03S
BISMARCK       FAIR      71  45  39 N9        30.07F
MINOT          FAIR      74  40  29 CALM      30.04F
MINOT AFB      FAIR      73  35  25 NW14      30.02F
GARRISON         N/A     70  47  43 S7G16     30.05F
WILLISTON      FAIR      74  33  22 VRB5      30.05F
DICKINSON      PTSUNNY   68  39  34 SE9       30.06F
HETTINGER      FAIR      70  45  40 VRB7      30.10S
$$

 *****  OTHER OBSERVATIONS NORTHEAST NORTH DAKOTA  *****

CITY           SKY/WX    TMP DP  RH WIND       PRES   REMARKS
WALHALLA       FAIR      75  72  88 W9G18     29.97S
LANGDON        FAIR      73  43  33 W13G22    30.01S
CAVALIER       FAIR      73  46  38 W13       29.96S
GRAFTON        FAIR      75  46  35 NW15      29.99R
CANDO          FAIR      73  46  38 NW7G14    30.03F
FORT TOTTEN      N/A     74  49  40 NW6       29.95S
ROLLA          FAIR      70  41  35 NW8G16    30.03F
RUGBY          FAIR      72  41  33 NW13      30.02F
 ***** THE ABOVE OBSERVATIONS ARE NON NWS ARE NOT QUALITY
        CONTROLLED AND MAY MIS-REPORT RAIN FOR SNOW...
$$

 *****  OTHER OBSERVATIONS SOUTHEAST NORTH DAKOTA *****

CITY           SKY/WX    TMP DP  RH WIND       PRES   REMARKS
COOPERSTOWN    FAIR      72  46  40 NW13      30.02S
VALLEY CITY      N/A     72  48  43 NW9       30.03S
OAKES          NOT AVBL
GWINNER        CLEAR     70  54  56 CALM      30.01S
BUFFALO        NOT AVBL
WYNDMERE       NOT AVBL
 ***** THE ABOVE OBSERVATIONS ARE NON NWS ARE NOT QUALITY
       CONTROLLED AND MAY MIS-REPORT RAIN FOR SNOW...
$$

  *****  WEATHER ACROSS NORTHERN MINNESOTA  *****

CITY           SKY/WX    TMP DP  RH WIND       PRES   REMARKS
FLAG ISLAND    HAZE      73  46  38 NW9       29.90S VSB 1
WARROAD        FAIR      73  52  46 W14       29.93F
ROSEAU         FAIR      77  48  36 NW10G18   29.93F
HALLOCK        FAIR      75  43  31 NW9G20    29.95S
THF RVR FALLS  FAIR      75  42  30 NW12      29.97F
HALSTAD          N/A     74  46  37 N10         N/A
FOSSTON        FAIR      75  45  33 NW14      29.96F
BAUDETTE       FAIR      76  50  40 NW15G23   29.92S
WASKISH        PTSUNNY   75  52  43 NW12      29.93S
CROOKSTON      FAIR      77  43  29 N13G23    29.96S
$$
  *****  WEATHER ACROSS CENTRAL AND WEST MINNESOTA  *****

CITY           SKY/WX    TMP DP  RH WIND       PRES   REMARKS
BEMIDJI        FAIR      73  46  38 NW15      29.96S
PARK RAPIDS    FAIR      73  56  54 NW9       29.97R
WADENA         FAIR      70  57  64 CALM      29.99S
DETROIT LAKES  FAIR      72  54  53 N6        30.01R
MOORHEAD       FAIR      73  50  43 NW7       30.00R
FERGUS FALLS   FAIR      72  59  64 N6        29.98F
ELBOW LAKE     FAIR      69  59  71 NE7       30.00F HAZE
MORRIS MN      FAIR      70  61  73 NW5       29.99F
STAPLES        FAIR      72  55  56 CALM      29.98S
WHEATON        FAIR      72  55  56 NW6       30.03R
$$
  *****  WEATHER ELSEWHERE ACROSS MINNESOTA  *****

CITY           SKY/WX    TMP DP  RH WIND       PRES   REMARKS
DULUTH         FAIR      78  62  57 W14G23    29.91F
INTRNTL FALLS  FAIR      75  52  44 W10G22    29.89S
ELY            FAIR      75  57  53 W10G16    29.90R
CLOQUET        FAIR      79  55  44 W13       29.93R
BRAINERD       FAIR      72  57  59 N6        29.96R
HIBBING        FAIR      71  59  65 W7        29.92R
ALEXANDRIA     NOT AVBL
SAINT CLOUD    FAIR      77  65  66 NW9       29.94F
MINNEAPOLIS    PTSUNNY   84  69  60 NW6       29.93S
$$

  *****  WEATHER ACROSS SOUTH DAKOTA  *****

CITY           SKY/WX    TMP DP  RH WIND       PRES   REMARKS
SIOUX FALLS    FAIR      83  71  67 NE6       29.97R
BROOKINGS      FAIR      75  62  64 NE9       30.00F
WATERTOWN      FAIR      66  56  70 E7        30.02R
HURON          FAIR      80  62  54 N8        29.99R
SISSETON         N/A     72  57  59 N6        30.01R
ABERDEEN       FAIR      69  52  54 NE12      30.03S
MITCHELL       FAIR      81  65  58 E12       29.97F
PIERRE         FAIR      79  54  41 N7        30.03S
MOBRIDGE       FAIR      73  51  46 N10       30.04S
RAPID CITY     FAIR      76  48  37 MISG      30.07F
$$

  *****  SOME WEATHER IN NEARBY STATES *****

CITY           SKY/WX    TMP DP  RH WIND       PRES   REMARKS
GLASGOW MT     FAIR      76  33  21 S14       30.00F
GREAT FALLS MT FAIR      78  30  17 W13       30.03F
CHEYENNE WY    FAIR      79  42  26 NE10      30.17F
SCOTTSBLUFF NE FAIR      83  54  36 E12       30.06F
OMAHA NE       PTSUNNY   79  64  60 S10       29.96F THUNDER
DES MOINES IA  FAIR      77  68  73 W10       29.94F
DAVENPORT IA   CLOUDY    72  67  84 SE8       30.01R
CHICAGO IL     PTSUNNY   87  65  47 W9        30.00F
EAU CLAIRE WI  FAIR      82  65  56 W16       29.93S
LA CROSSE WI   FAIR      86  65  49 SW9       29.96S
$$

  *****  SOME NATIONAL WEATHER *****

CITY           SKY/WX    TMP DP  RH WIND       PRES   REMARKS
LA GUARDIA NY  PTSUNNY   82  60  47 NW9       30.06S
RALEIGH NC     PTSUNNY   93  65  39 VRB5      30.10F HX  95
ATLANTA GA     PTSUNNY   90  66  45 VRB3      30.10F HX  92
NEW ORLEANS LA FAIR      93  72  50 NE9       30.03F HX 101
OKLAHOMA CITY  LGT RAIN  85  71  63 SW8       30.00F HX  90
ALBUQUERQUE NM CLOUDY    75  52  44 SW17G24   30.18F
SALT LAKE CITY FAIR      91  37  15 S7        30.02F
LOS ANGELES CA FAIR      73  61  65 W12       29.94F
BOISE ID       FAIR      78  42  27 W9        30.05F
SEATTLE WA     PTSUNNY   68  51  54 W8        30.16F
$$

*** WEATHER ACROSS MANITOBA...SASKATCHEWAN AND ONTARIO ***
                ***ONTARIO***

CITY           SKY/WX    TMP DP  RH WIND       PRES   REMARKS
GERALDTON      PTSUNNY   79  61  53 S20G30    29.74F
THUNDER BAY    CLOUDY    77  66  69 SW12      29.77R
SIOUX LOOKOUT  MOSUNNY   73  50  43 NW17G26   29.82R
TORONTO        PTSUNNY   81  63  54 W15       30.05F
BIG TROUT LK   MOSUNNY   66  59  77 W15G22    29.60R
PICKLE LAKE    MOSUNNY   72  50  46 W17G26    29.73R
DRYDEN         SUNNY     75  46  35 NW14G20   29.85R
KENORA         MOSUNNY   73  45  35 NW12G23   29.90R
$$
                *** MANITOBA***

CITY           SKY/WX    TMP DP  RH WIND       PRES   REMARKS
BRANDON        MOSUNNY   73  43  33 W12       29.99S
DAUPHIN        SUNNY     73  46  38 W18G26    29.93S
ISLAND LAKE    PTSUNNY   66  48  52 W16       29.69R
PILOT MOUND      N/A     72  41  33 W12G18      N/A
THE PAS        PTSUNNY   70  43  37 W15G25    29.77S
THOMPSON       LGT RAIN  63  50  63 W15G24    29.63R
WINNIPEG       MOSUNNY   77  43  29 NW14G23   29.93F
LYNN LAKE      MOSUNNY   63  48  59 MISG      29.63R
CHURCHILL      RAIN      55  55 100 E6        29.52R FOG
GILLAM         MOSUNNY   66  57  72 NW18G24   29.51S
$$
                ***SASKATCHEWAN***

CITY           SKY/WX    TMP DP  RH WIND       PRES   REMARKS
ESTEVAN        CLOUDY    72  41  33 W9        30.04F
KINDERSLEY     PTSUNNY   70  37  30 N6        29.95F
LLOYDMINSTER   PTSUNNY   59  45  58 W16G22    29.94S
PRINCE ALBERT  PTSUNNY   70  41  35 W16G28    29.89F
REGINA         PTSUNNY   66  37  34 W5        30.02S
YORKTON        SUNNY     72  41  33 W18G24    29.96F
N. BATTLEFORD  PTSUNNY   59  45  58 W9        29.96S



USA.gov is the U.S. government's official web portal to all federal, state and local government web resources and services.